Other Public Products
Issued by NWS Grand Forks, ND

Home | Current Version | Previous Version | Graphics & Text | Print | Product List | Glossary On
Versions: 1 2 3 4 5 6 7 8 9 10 11 12 13 14 15 16 17 18 19 20 21 22 23 24 25 26 27 28 29 30 31 32 33 34 35 36 37 38 39 40 41 42 43 44 45 46 47 48 49 50
000
FPUS83 KFGF 301531
OPUFGF
PRAIRIE TO PINES WEATHER ROUNDUP
NATIONAL WEATHER SERVICE EASTERN NORTH DAKOTA/GRAND FORKS ND
1000 AM CDT SUN AUG 30 2015

 **SATELLITE DATA USED TO AUGMENT SKY COVER AT AUTOMATED STATIONS**
 *****  WEATHER ACROSS EASTERN NORTH DAKOTA  *****

CITY           SKY/WX    TMP DP  RH WIND       PRES   REMARKS
GRAND FORKS    NOT AVBL
GRAND FORKS AF MOSUNNY   70  66  88 S14       29.76S
GRAND CITY NWS   N/A     66 N/A N/A S14         N/A
BUXTON         NOT AVBL
DEVILS LAKE    MOSUNNY   75  61  60 SE12      29.72S
FARGO          SUNNY     70  63  78 S14       29.82F
WAHPETON ARPT  SUNNY     70  61  73 SE14      29.86S
$$

 *****  WEATHER ACROSS CENTRAL AND WESTERN NORTH DAKOTA  *****

CITY           SKY/WX    TMP DP  RH WIND       PRES   REMARKS
JAMESTOWN      MOSUNNY   70  65  84 S12       29.78F
BISMARCK       NOT AVBL
MINOT          NOT AVBL
MINOT AFB      MOSUNNY   77  62  61 S8        29.64S
GARRISON         N/A     75  59  57 S9        29.69F
WILLISTON      NOT AVBL
DICKINSON      NOT AVBL
HETTINGER      PTSUNNY   75  48  38 S8        29.76S
$$

 *****  OTHER OBSERVATIONS NORTHEAST NORTH DAKOTA  *****

CITY           SKY/WX    TMP DP  RH WIND       PRES   REMARKS
WALHALLA       FAIR      72  72 100 MISG      29.72F
LANGDON        FAIR      81  64  57 S10       29.74F
CAVALIER       CLOUDY    68  68 100 S10       29.73F
GRAFTON        CLOUDY    66  66 100 S13       29.76F
CANDO          FAIR      75  64  69 S9        29.72S
FORT TOTTEN      N/A     73  66  78 S9        29.95S
ROLLA          FAIR      75  64  69 S8        29.72F
RUGBY          FAIR      75  64  69 SE9       29.69F
 ***** THE ABOVE OBSERVATIONS ARE NON NWS ARE NOT QUALITY
        CONTROLLED AND MAY MIS-REPORT RAIN FOR SNOW...
$$

 *****  OTHER OBSERVATIONS SOUTHEAST NORTH DAKOTA *****

CITY           SKY/WX    TMP DP  RH WIND       PRES   REMARKS
COOPERSTOWN    NOT AVBL
VALLEY CITY    FAIR      72  72 100 S15       29.80F
OAKES            N/A     72  66  83 S13G21    29.83S
GWINNER        FAIR      75  66  73 S16G23    29.84S
SHEYENNE NWR     N/A     72  67  85 S6        29.95S
BUFFALO        NOT AVBL
WYNDMERE         N/A     72  66  83 SE7         N/A
 ***** THE ABOVE OBSERVATIONS ARE NON NWS ARE NOT QUALITY
       CONTROLLED AND MAY MIS-REPORT RAIN FOR SNOW...
$$

  *****  WEATHER ACROSS NORTHERN MINNESOTA  *****

CITY           SKY/WX    TMP DP  RH WIND       PRES   REMARKS
FLAG ISLAND    PTSUNNY   68  64  88 S7        29.80R
WARROAD        CLOUDY    70  66  88 S5        29.81S
ROSEAU         CLOUDY    70  64  83 S9          N/A
HALLOCK        PTSUNNY   72  66  83 S14       29.75F
THF RVR FALLS  PTSUNNY  N/A N/A N/A S8        29.80F
HALSTAD        NOT AVBL
FOSSTON        MOSUNNY   72  63  73 S13       29.85S
BAUDETTE       PTSUNNY   70  65  84 SW8       29.82S
WASKISH        PTSUNNY   72  66  83 SE3       29.83F
CROOKSTON      MOSUNNY   72  64  78 S17       29.80S
$$
  *****  WEATHER ACROSS CENTRAL AND WEST MINNESOTA  *****

CITY           SKY/WX    TMP DP  RH WIND       PRES   REMARKS
BEMIDJI        MOSUNNY   69  64  85 S12       29.88S
PARK RAPIDS    SUNNY     68  61  78 S10       29.90F
WADENA         SUNNY     70  64  83 S9        29.91S
DETROIT LAKES  SUNNY     70  63  78 S10       29.89S
MOORHEAD       SUNNY     70  63  78 S17       29.84S
FERGUS FALLS   SUNNY     70  64  83 SE13      29.88S
ELBOW LAKE     FAIR      67  63  87 S15       29.89F
MORRIS MN      SUNNY     70  64  83 S14       29.90F
STAPLES        CLOUDY    66  63  88 S9        29.93S
WHEATON        SUNNY     68  63  83 SE13      29.89S
$$
  *****  WEATHER ELSEWHERE ACROSS MINNESOTA  *****

CITY           SKY/WX    TMP DP  RH WIND       PRES   REMARKS
DULUTH         SUNNY     68  61  78 SW12      29.94F
INTRNTL FALLS  PTSUNNY   70  66  87 SW8       29.85S
ELY            CLOUDY    64  61  88 SW7       29.91S
CLOQUET        SUNNY     70  61  73 S8        29.95S
BRAINERD       CLOUDY    64  60  87 SW12      29.95S
HIBBING        CLOUDY    65  62  90 VRB6      29.92F
ALEXANDRIA     SUNNY     66  62  87 S12       29.94F
SAINT CLOUD    CLOUDY    63  60  90 S12       29.97S
MINNEAPOLIS    PTSUNNY   67  59  75 SW7       30.01S
$$

  *****  WEATHER ACROSS SOUTH DAKOTA  *****

CITY           SKY/WX    TMP DP  RH WIND       PRES   REMARKS
SIOUX FALLS    CLOUDY    64  61  90 S9        29.99S
BROOKINGS      PTSUNNY   64  61  88 S14       29.98S
WATERTOWN      SUNNY     68  63  84 S16       29.92S
HURON          SUNNY     67  63  87 S14       29.89S
SISSETON         N/A     74  63  68 S12       29.85F
ABERDEEN       MOSUNNY   69  64  84 S15       29.85S
MITCHELL       SUNNY     69  65  86 S13       29.93S
PIERRE         SUNNY     75  58  55 SE8       29.81F
MOBRIDGE       MOSUNNY   74  61  63 SE16      29.76F
RAPID CITY     MOSUNNY   75  53  46 S10       29.83F
$$

  *****  SOME WEATHER IN NEARBY STATES *****

CITY           SKY/WX    TMP DP  RH WIND       PRES   REMARKS
GLASGOW MT     PTSUNNY   73  49  42 W23G29    29.76R
GREAT FALLS MT CLOUDY    62  52  69 S8        29.83R HAZE
CHEYENNE WY    SUNNY     77  41  27 W9        30.14S
SCOTTSBLUFF NE SUNNY     70  47  43 SE9       29.98F
OMAHA NE       CLOUDY    66  62  87 SW10      30.06S FOG
DES MOINES IA  CLOUDY    65  63  93 SE3       30.07R FOG
DAVENPORT IA   CLOUDY    65  64  97 E6        30.10R FOG
CHICAGO IL     CLOUDY    69  64  84 NE7       30.08R HAZE
EAU CLAIRE WI  CLOUDY    67  61  81 SW12      30.03S
LA CROSSE WI   CLOUDY    64  63  96 S5        30.06S FOG
$$

  *****  SOME NATIONAL WEATHER *****

CITY           SKY/WX    TMP DP  RH WIND       PRES   REMARKS
LA GUARDIA NY  MOSUNNY   82  63  52 S7        30.10S
RALEIGH NC     CLOUDY    81  62  52 VRB3      30.20R
ATLANTA GA     CLOUDY    68  64  88 NE15      30.16S
NEW ORLEANS LA MOSUNNY   85  69  58 N7        30.06R
OKLAHOMA CITY  MOSUNNY   77  67  71 N8        30.02S
ALBUQUERQUE NM MOSUNNY   71  51  49 NE5       30.26R
SALT LAKE CITY PTSUNNY   77  48  35 NW8       29.98R
LOS ANGELES CA MOSUNNY   74  67  78 E7        29.90R
BOISE ID       SUNNY     63  44  50 CALM      29.99R
SEATTLE WA     CLOUDY    56  54  93 S10       29.87R
$$

*** WEATHER ACROSS MANITOBA...SASKATCHEWAN AND ONTARIO ***
                ***ONTARIO***

CITY           SKY/WX    TMP DP  RH WIND       PRES   REMARKS
GERALDTON      CLOUDY    68  61  77 S15G22    29.81F FOG
THUNDER BAY    PTSUNNY   68  61  77 VRB2      29.86F
SIOUX LOOKOUT  CLOUDY    70  66  88 SW7       29.81S
TORONTO        PTSUNNY   73  61  64 CALM      30.10R
BIG TROUT LK   MOSUNNY   70  61  73 NW10      29.64R
PICKLE LAKE    CLOUDY    72  64  78 W9G17     29.72R
DRYDEN         CLOUDY    68  64  88 SW10      29.82S
KENORA         FOG       66  66 100 S9        29.81S VSB 1
$$
                *** MANITOBA***

CITY           SKY/WX    TMP DP  RH WIND       PRES   REMARKS
BRANDON        PTSUNNY   70  64  83 E9        29.67F SMOKE
DAUPHIN        SUNNY     66  59  77 SE7       29.66F
ISLAND LAKE    CLOUDY    63  57  82 NE7       29.76R
PILOT MOUND      N/A     77  64  65 S10         N/A
THE PAS        CLOUDY    61  59  94 E15G25    29.66F
THOMPSON       CLOUDY    50  46  87 NE7       29.82S
WINNIPEG       PTSUNNY   73  70  88 S8        29.73F
LYNN LAKE      CLOUDY    50  48  93 MISG      29.76S
CHURCHILL      PTSUNNY   50  46  87 E14       29.91R
$$
                ***SASKATCHEWAN***

CITY           SKY/WX    TMP DP  RH WIND       PRES   REMARKS
ESTEVAN        PTSUNNY   75  59  57 E7        29.62F SMOKE
KINDERSLEY     PTSUNNY   66  39  37 SW17      29.64R
LLOYDMINSTER   PTSUNNY   61  46  59 SW8       29.52S
PRINCE ALBERT  CLOUDY    66  59  77 S3        29.55S
REGINA         SHOWER    66  55  68 E5        29.69R SMOKE
YORKTON        SUNNY     73  55  53 SE10      29.62F


USA.gov is the U.S. government's official web portal to all federal, state and local government web resources and services.